Location: Beadle
(51.4667°N, 109.0000°W)
Time: 10:27:24
(UTC+00:00)

DIWATA 2B (PO-101) - Pass Details

Date: 30 June 2022
Orbit: 583 x 599 km, 98.0° (Epoch: 14 August)

Event Time Altitude Azimuth Distance (km) Brightness Sun altitude
Exits shadow 09:33:59 12° 193° (SSW) 1,808 ? -9.8°
Maximum altitude 09:37:37 40° 262° (W) 892 ? -9.5°
Drops below altitude 10° 09:41:38 10° 333° (NNW) 1,952 ? -9.1°
Sets 09:43:55 0° 341° (NNW) 2,860 ? -8.9°
